Garden City, KS

5:57 PM CDT on June 26, 2017 (GMT -0500)
Garden City Regional

Weather History for KGCK - March, 2014

Change the Weather History Date:

Tuesday, March 4, 2014

  Actual Average Record
Temperature  
Mean Temperature 36 °F 40 °F  
Max Temperature 58 °F 54 °F 85 °F (2009)
Min Temperature 14 °F 26 °F 1 °F (1948)
Degree Days  
Heating Degree Days 29 25  
Month to date heating degree days 199 102  
Since 1 July heating degree days 4375 4126  
Cooling Degree Days 0 0  
Month to date cooling degree days 0 0  
Year to date cooling degree days 0 0  
Moisture  
Dew Point 26 °F    
Average Humidity 70    
Maximum Humidity 88    
Minimum Humidity 51    
Precipitation  
Precipitation 0.00 in 0.04 in 0.78 in (2004)
Month to date precipitation 0.01 0.12  
Year to date precipitation 0.17 1.00  
Sea Level Pressure  
Sea Level Pressure 29.95 in    
Wind  
Wind Speed 10 mph (South)    
Max Wind Speed 17 mph    
Max Gust Speed 20 mph    
Visibility 10 miles    
Events      
T = Trace of Precipitation, MM = Missing Value Source: NWS Daily Summary

Daily Weather History Graph

Daily Weather History Graph

Search for Another Location

Airport or City:

Trip Planner

Search our weather history database for the weather conditions in past years. The results will help you decide how hot, cold, wet, or windy it might be!

Date:

Astronomy

Mar. 04, 2014 Rise Set
Actual Time 7:10 AM CST 6:39 PM CST
Civil Twilight 6:43 AM CST 7:05 PM CST
Nautical Twilight 6:13 AM CST 7:36 PM CST
Astronomical Twilight 5:43 AM CST 8:06 PM CST
Moon 9:01 AM CST (3/4) 10:44 PM CST (3/4)
Length of Visible Light 12h 21m
Length of Day
11h 29m
Waxing Crescent, 15% of the Moon is Illuminated
Mar 4
Waxing Crescent
Mar 8
First Quarter
Mar 16
Full
Mar 23
Last Quarter
Mar 30
New

Hourly Weather History & Observations

Time (CST) Temp. Windchill Dew Point Humidity Pressure Visibility Wind Dir Wind Speed Gust Speed Precip Events Conditions
12:54 AM 18.0 °F 6.1 °F 12.9 °F 81% 30.12 in 10.0 mi South 10.4 mph - N/A   Clear
1:54 AM 18.0 °F 6.1 °F 14.0 °F 84% 30.10 in 10.0 mi South 10.4 mph - N/A   Clear
2:54 AM 16.0 °F 4.4 °F 12.9 °F 88% 30.09 in 10.0 mi South 9.2 mph - N/A   Clear
3:54 AM 18.0 °F 6.1 °F 14.0 °F 84% 30.06 in 10.0 mi South 10.4 mph - N/A   Clear
4:54 AM 17.1 °F 6.6 °F 12.9 °F 84% 30.05 in 10.0 mi South 8.1 mph - N/A   Clear
5:54 AM 16.0 °F 8.8 °F 12.9 °F 88% 30.05 in 10.0 mi SSW 4.6 mph - N/A   Clear
6:54 AM 16.0 °F 6.3 °F 12.9 °F 88% 30.04 in 10.0 mi SSW 6.9 mph - N/A   Clear
7:54 AM 17.1 °F 6.6 °F 14.0 °F 88% 30.03 in 10.0 mi WSW 8.1 mph - N/A   Clear
8:54 AM 23.0 °F 17.0 °F 19.0 °F 85% 30.02 in 9.0 mi West 4.6 mph - N/A   Clear
9:54 AM 30.9 °F 25.2 °F 25.0 °F 79% 30.00 in 10.0 mi West 5.8 mph - N/A   Clear
10:54 AM 41.0 °F 37.1 °F 30.9 °F 67% 29.97 in 10.0 mi SW 5.8 mph - N/A   Clear
11:54 AM 48.9 °F - 35.1 °F 59% 29.95 in 10.0 mi South 6.9 mph - N/A   Clear
12:54 PM 55.0 °F - 37.0 °F 51% 29.90 in 10.0 mi South 15.0 mph - N/A   Clear
1:54 PM 55.9 °F - 37.9 °F 51% 29.88 in 10.0 mi South 12.7 mph - N/A   Clear
2:54 PM 55.9 °F - 37.0 °F 49% 29.87 in 10.0 mi South 11.5 mph - N/A   Clear
3:54 PM 55.0 °F - 37.9 °F 53% 29.84 in 10.0 mi South 12.7 mph - N/A   Clear
4:54 PM 53.1 °F - 37.9 °F 57% 29.84 in 10.0 mi South 12.7 mph - N/A   Clear
5:54 PM 48.9 °F - 37.0 °F 64% 29.85 in 10.0 mi SSE 10.4 mph - N/A   Clear
6:54 PM 43.0 °F 37.2 °F 35.1 °F 74% 29.87 in 10.0 mi SSE 10.4 mph - N/A   Clear
7:54 PM 39.9 °F 32.9 °F 33.1 °F 77% 29.88 in 10.0 mi SE 11.5 mph - N/A   Clear
8:54 PM 37.0 °F 28.5 °F 30.9 °F 79% 29.88 in 10.0 mi SE 13.8 mph - N/A   Clear
9:54 PM 36.0 °F 28.0 °F 28.9 °F 76% 29.87 in 10.0 mi SSE 11.5 mph - N/A   Clear
10:54 PM 37.0 °F 29.8 °F 28.9 °F 73% 29.86 in 10.0 mi SSE 10.4 mph - N/A   Clear
11:54 PM 37.0 °F 31.0 °F 28.9 °F 73% 29.86 in 10.0 mi South 8.1 mph - N/A   Clear